ONEWEB-0263 (48981 NORAD) Tracking and Keplerian Element Data

This shows tracking and keplerian element data for the satellite.

Feedback or suggestion? Click here.




ElementValue
Catalog48981
NameONEWEB-0263
Epoch Orbit1293
Epoch Day262.25001157
Epoch Year2021
RAAN213.3498
Inclination87.805
Eccentricity0.0009346
Argument of Perigee5.915
Mean Anonmoly168.2005
Mean Motion13.60999641
Decay Rate1.5E-07
L11 48981U 21060Q 21262.25001157 .00000015 00000-0 00000+0 0 9998
L22 48981 87.8050 213.3498 0009346 5.9150 168.2005 13.60999641 12937

Live tracking and technical data element details for ONEWEB-0263 (NORAD 48981). ONEWEB-0263 can be tracked NOW for your location showing map with azimuth and elevation plus other details from your city location.

Track the satellite on the map from your city or location and see movement details for azimuth, elevation, latitude, longitude, range, height, and movement on the map or in text.







IsCatalogInMostPopularTable: catalog: 48981, numindb: 21
Update: records affected: 1



GetName: 48981 ONEWEB-0263

Hit Count: updated at: Fri, 24 Sep 2021 18:16:22 GMT